Hourly Weather Kaprun

Today, 13 July, Monday

Time Temperature Precipitation Wind Pressure Humidity
00:00 +3°C° 0 mm 1 mps 600 mmHg 94%
01:00 +3°C° 0 mm 1 mps 600 mmHg 93%
02:00 +3°C° 0 mm 1 mps 600 mmHg 93%
03:00 +2°C° 0 mm 1 mps 600 mmHg 92%
04:00 +2°C° 0 mm 1 mps 599 mmHg 92%
05:00 +4°C° 0 mm 0 mps 600 mmHg 84%
06:00 +6°C° 0 mm 0 mps 601 mmHg 76%
07:00 +8°C° 0 mm 0 mps 602 mmHg 67%
08:00 +11°C° 0 mm 1 mps 603 mmHg 60%
09:00 +12°C° 0 mm 1 mps 603 mmHg 53%
10:00 +14°C° 0 mm 1 mps 604 mmHg 45%
11:00 +15°C° 0 mm 1 mps 604 mmHg 42%
12:00 +16°C° 0 mm 2 mps 604 mmHg 39%
13:00 +16°C° 0 mm 2 mps 604 mmHg 36%
14:00 +16°C° 0 mm 2 mps 603 mmHg 39%
15:00 +16°C° 0 mm 2 mps 603 mmHg 41%
16:00 +15°C° 0 mm 2 mps 602 mmHg 43%
17:00 +14°C° 0 mm 2 mps 602 mmHg 54%
18:00 +12°C° 0 mm 1 mps 601 mmHg 66%
19:00 +11°C° 0 mm 1 mps 601 mmHg 77%
20:00 +9°C° 0 mm 1 mps 600 mmHg 83%
21:00 +7°C° 0 mm 1 mps 599 mmHg 88%
22:00 +4°C° 0 mm 0 mps 598 mmHg 94%
23:00 +4°C° 0 mm 0 mps 598 mmHg 95%

Tomorrow, 14 July, Tuesday

Time Temperature Precipitation Wind Pressure Humidity
00:00 +4°C° 0 mm 0 mps 598 mmHg 95%
01:00 +4°C° 0 mm 0 mps 598 mmHg 95%
02:00 +4°C° 0 mm 0 mps 598 mmHg 95%
03:00 +4°C° 0 mm 0 mps 597 mmHg 95%
04:00 +4°C° 0 mm 0 mps 597 mmHg 95%
05:00 +5°C° 0 mm 0 mps 598 mmHg 90%
06:00 +7°C° 0 mm 0 mps 599 mmHg 85%
07:00 +8°C° 0 mm 0 mps 599 mmHg 80%
08:00 +10°C° 0.1 mm 0 mps 600 mmHg 73%
09:00 +12°C° 0.1 mm 1 mps 600 mmHg 66%
10:00 +14°C° 0.1 mm 1 mps 600 mmHg 58%
11:00 +14°C° 0.4 mm 1 mps 600 mmHg 59%
12:00 +14°C° 0.4 mm 1 mps 600 mmHg 60%
13:00 +14°C° 0.4 mm 1 mps 600 mmHg 61%
14:00 +13°C° 1.3 mm 1 mps 599 mmHg 69%
15:00 +12°C° 1.3 mm 1 mps 598 mmHg 76%
16:00 +11°C° 1.3 mm 1 mps 598 mmHg 84%
17:00 +10°C° 1 mm 1 mps 598 mmHg 86%
18:00 +10°C° 1 mm 1 mps 597 mmHg 89%
19:00 +9°C° 1 mm 1 mps 597 mmHg 91%
20:00 +8°C° 0.1 mm 1 mps 597 mmHg 92%
21:00 +7°C° 0.1 mm 1 mps 597 mmHg 93%
22:00 +7°C° 0.1 mm 1 mps 596 mmHg 93%
23:00 +6°C° 0 mm 1 mps 596 mmHg 93%

Day after tomorrow, 15 July, Wednesday

Time Temperature Precipitation Wind Pressure Humidity
00:00 +6°C° 0 mm 1 mps 596 mmHg 93%
01:00 +6°C° 0 mm 1 mps 596 mmHg 93%
02:00 +6°C° 0.4 mm 1 mps 596 mmHg 93%
03:00 +6°C° 0.4 mm 1 mps 596 mmHg 93%
04:00 +7°C° 0.4 mm 1 mps 596 mmHg 93%
05:00 +7°C° 1.1 mm 1 mps 596 mmHg 94%
06:00 +7°C° 1.1 mm 1 mps 596 mmHg 95%
07:00 +6°C° 1.1 mm 0 mps 596 mmHg 95%
08:00 +7°C° 1 mm 1 mps 596 mmHg 94%
09:00 +8°C° 1 mm 1 mps 596 mmHg 93%
10:00 +8°C° 1 mm 1 mps 596 mmHg 92%
11:00 +8°C° 0.4 mm 1 mps 596 mmHg 90%
12:00 +7°C° 0.4 mm 0 mps 597 mmHg 89%
13:00 +8°C° 0.4 mm 0 mps 597 mmHg 88%
14:00 +9°C° 0.5 mm 1 mps 597 mmHg 90%
15:00 +8°C° 0.5 mm 1 mps 597 mmHg 92%
16:00 +8°C° 0.5 mm 1 mps 597 mmHg 94%
17:00 +8°C° 1 mm 1 mps 597 mmHg 95%
18:00 +7°C° 1 mm 1 mps 597 mmHg 96%
19:00 +7°C° 1 mm 1 mps 597 mmHg 97%
20:00 +6°C° 0.2 mm 1 mps 597 mmHg 96%
21:00 +6°C° 0.2 mm 1 mps 596 mmHg 95%
22:00 +5°C° 0.2 mm 1 mps 596 mmHg 94%
23:00 +5°C° 0 mm 1 mps 596 mmHg 94%

16 July, Thursday

Time Temperature Precipitation Wind Pressure Humidity
00:00 +4°C° 0 mm 1 mps 596 mmHg 94%
01:00 +4°C° 0 mm 1 mps 596 mmHg 94%
02:00 +3°C° 0 mm 1 mps 595 mmHg 94%
03:00 +3°C° 0 mm 1 mps 595 mmHg 94%
04:00 +3°C° 0 mm 1 mps 595 mmHg 94%
05:00 +4°C° 0.3 mm 1 mps 596 mmHg 94%
06:00 +5°C° 0.3 mm 1 mps 596 mmHg 93%
07:00 +7°C° 0.3 mm 1 mps 597 mmHg 93%
08:00 +7°C° 0.8 mm 1 mps 597 mmHg 93%
09:00 +6°C° 0.8 mm 2 mps 597 mmHg 94%
10:00 +5°C° 0.8 mm 2 mps 597 mmHg 95%
11:00 +5°C° 0.8 mm 2 mps 597 mmHg 95%
12:00 +5°C° 0.8 mm 2 mps 597 mmHg 95%
13:00 +5°C° 0.8 mm 1 mps 597 mmHg 95%
14:00 +7°C° 0.1 mm 1 mps 597 mmHg 87%
15:00 +8°C° 0.1 mm 2 mps 598 mmHg 79%
16:00 +9°C° 0.1 mm 2 mps 599 mmHg 71%
17:00 +8°C° 0.2 mm 2 mps 598 mmHg 77%
18:00 +7°C° 0.2 mm 2 mps 598 mmHg 82%
19:00 +6°C° 0.2 mm 2 mps 598 mmHg 88%
20:00 +5°C° 0.2 mm 2 mps 598 mmHg 90%
21:00 +4°C° 0.2 mm 2 mps 597 mmHg 93%
22:00 +4°C° 0.2 mm 1 mps 597 mmHg 95%
23:00 +4°C° 0 mm 1 mps 597 mmHg 95%

17 July, Friday

Time Temperature Precipitation Wind Pressure Humidity
00:00 +3°C° 0 mm 1 mps 597 mmHg 95%
01:00 +3°C° 0 mm 1 mps 596 mmHg 95%
02:00 +3°C° 0.1 mm 1 mps 596 mmHg 95%
03:00 +3°C° 0.1 mm 1 mps 596 mmHg 96%
04:00 +3°C° 0.1 mm 1 mps 596 mmHg 96%
05:00 +4°C° 0.2 mm 1 mps 597 mmHg 93%
06:00 +5°C° 0.2 mm 1 mps 597 mmHg 91%
07:00 +5°C° 0.2 mm 2 mps 598 mmHg 89%
08:00 +5°C° 0.3 mm 2 mps 598 mmHg 88%
09:00 +5°C° 0.3 mm 2 mps 598 mmHg 86%
10:00 +6°C° 0.3 mm 2 mps 598 mmHg 85%
11:00 +7°C° 0.6 mm 2 mps 598 mmHg 82%
12:00 +8°C° 0.6 mm 2 mps 598 mmHg 80%
13:00 +8°C° 0.6 mm 2 mps 599 mmHg 77%
14:00 +8°C° 0.6 mm 2 mps 599 mmHg 77%
15:00 +8°C° 0.6 mm 2 mps 598 mmHg 76%
16:00 +8°C° 0.6 mm 3 mps 598 mmHg 76%
17:00 +7°C° 0.3 mm 2 mps 598 mmHg 80%
18:00 +6°C° 0.3 mm 2 mps 598 mmHg 84%
19:00 +5°C° 0.3 mm 2 mps 598 mmHg 87%
20:00 +4°C° 0 mm 2 mps 597 mmHg 90%
21:00 +2°C° 0 mm 2 mps 597 mmHg 92%
22:00 +2°C° 0 mm 1 mps 596 mmHg 94%
23:00 +2°C° 0 mm 1 mps 596 mmHg 94%

18 July, Saturday

Time Temperature Precipitation Wind Pressure Humidity
00:00 +1°C° 0 mm 2 mps 596 mmHg 94%
01:00 -1°C° 0 mm 2 mps 596 mmHg 94%
02:00 +1°C° 0 mm 1 mps 596 mmHg 94%
03:00 +1°C° 0 mm 1 mps 596 mmHg 94%
04:00 +1°C° 0 mm 1 mps 596 mmHg 94%
05:00 +3°C° 0 mm 1 mps 596 mmHg 91%
06:00 +4°C° 0 mm 1 mps 597 mmHg 89%
07:00 +5°C° 0 mm 1 mps 598 mmHg 87%
08:00 +6°C° 0.1 mm 2 mps 598 mmHg 81%
09:00 +7°C° 0.1 mm 2 mps 598 mmHg 74%
10:00 +8°C° 0.1 mm 2 mps 599 mmHg 68%
11:00 +9°C° 0.4 mm 2 mps 599 mmHg 70%
12:00 +9°C° 0.4 mm 2 mps 599 mmHg 73%
13:00 +9°C° 0.4 mm 2 mps 598 mmHg 75%
14:00 +9°C° 0.7 mm 2 mps 598 mmHg 76%
15:00 +9°C° 0.7 mm 2 mps 598 mmHg 78%
16:00 +9°C° 0.7 mm 2 mps 598 mmHg 79%
17:00 +8°C° 0.1 mm 2 mps 598 mmHg 82%
18:00 +8°C° 0.1 mm 2 mps 597 mmHg 86%
19:00 +8°C° 0.1 mm 1 mps 597 mmHg 89%
20:00 +7°C° 0 mm 1 mps 597 mmHg 91%
21:00 +6°C° 0 mm 1 mps 596 mmHg 94%
22:00 +5°C° 0 mm 1 mps 596 mmHg 96%
23:00 +4°C° 0 mm 1 mps 596 mmHg 96%
Show more